19.3,67.5,1023.9,202009150030
19.5,75.0,1023.7,202009150100
19.1,81.0,1023.6,202009150130
18.7,87.1,1023.6,202009150200
18.5,99.9,1023.4,202009150230
18.4,99.9,1023.3,202009150300
18.4,99.9,1023.2,202009150330
18.0,99.9,1023.2,202009150400
18.5,99.9,1023.1,202009150430
18.6,99.9,1023.0,202009150500
19.1,99.9,1023.0,202009150530
22.6,57.4,1023.2,202009150600
23.6,53.5,1023.2,202009150630
24.8,33.2,1023.4,202009150700
26.3,24.3,1023.4,202009150730
26.2,26.3,1023.6,202009150800
26.9,25.3,1023.8,202009150830
27.0,25.2,1023.8,202009150900
26.3,28.6,1023.8,202009150930
25.8,29.6,1023.7,202009151000
25.4,33.2,1023.5,202009151030
25.3,35.9,1023.3,202009151100
25.5,27.7,1023.1,202009151130
25.6,28.2,1023.0,202009151200
26.8,26.6,1022.6,202009151230
26.9,22.3,1022.4,202009151300
26.8,20.6,1022.1,202009151330
26.8,20.5,1021.9,202009151400
26.7,21.6,1021.6,202009151430
26.6,20.3,1021.4,202009151500
26.5,20.6,1021.2,202009151530
26.2,20.3,1021.1,202009151600
25.6,21.6,1021.0,202009151630
25.3,22.5,1020.8,202009151700
24.9,24.0,1021.0,202009151730
24.5,28.3,1021.0,202009151800
24.2,30.5,1021.0,202009151830
23.9,30.2,1021.1,202009151900
23.8,30.8,1021.2,202009151930
23.4,35.5,1021.2,202009152000
23.1,39.9,1021.1,202009152030
23.3,39.5,1021.0,202009152100
23.2,45.2,1021.0,202009152130
23.2,46.0,1021.1,202009152200
22.9,51.4,1021.0,202009152230
22.6,52.7,1020.8,202009152300
22.6,52.5,1020.9,202009152330
21.1,60.9,1020.9,202009160000
20.9,64.5,1020.7,202009160030
20.0,71.6,1020.6,202009160100
20.3,63.5,1020.3,202009160130
19.3,70.8,1020.3,202009160200
19.4,72.4,1020.1,202009160230
19.0,72.6,1020.0,202009160300
18.6,80.5,1020.0,202009160330
19.0,76.0,1020.0,202009160400
18.3,77.6,1020.0,202009160430
17.8,89.6,1020.2,202009160500
18.3,92.4,1020.5,202009160530
18.7,92.0,1020.4,202009160600
19.8,66.5,1020.5,202009160630
21.3,47.9,1020.6,202009160700
23.5,35.0,1020.6,202009160730
25.3,27.0,1020.7,202009160800
24.2,34.4,1020.7,202009160830
25.1,29.7,1020.7,202009160900
25.2,29.5,1020.8,202009160930
26.1,26.2,1020.6,202009161000
26.6,24.1,1020.4,202009161030
25.8,21.6,1020.4,202009161100
25.6,23.7,1020.3,202009161130
25.7,22.0,1020.2,202009161200
28.1,14.6,1020.2,202009161230
26.0,17.3,1020.0,202009161300
25.7,18.5,1019.9,202009161330
25.7,20.6,1019.5,202009161400
25.9,20.2,1019.5,202009161430
25.6,21.6,1019.4,202009161500
25.5,21.7,1019.3,202009161530
25.5,23.1,1019.3,202009161600
25.1,24.3,1019.4,202009161630
24.5,24.7,1019.3,202009161700
23.7,22.8,1019.4,202009161730
23.5,21.8,1019.7,202009161800
23.4,21.0,1020.0,202009161830
23.2,20.8,1020.0,202009161900
22.9,21.2,1020.2,202009161930
22.7,23.2,1020.4,202009162000
22.3,23.7,1020.4,202009162030
22.3,23.2,1020.6,202009162100
22.3,23.0,1020.6,202009162130
22.0,24.2,1020.7,202009162200
20.9,28.6,1020.9,202009162230
21.2,28.3,1020.9,202009162300
20.9,30.0,1020.9,202009162330
20.9,31.0,1020.9,202009170000
